"Time","Temp","Dewpoint","Humidity","Pressure","Direction","Speed","Gust","Precip","PrecipRate"
"03:14:58","55","52.4","91","30.35","167","0","0","0.00","0.00"
"03:19:59","54.8","52.2","91","30.35","167","0","0","0.00","0.00"
"03:24:59","54.7","52.2","91.5","30.35","167","0","0","0.00","0.00"
"03:29:56","54.6","52.3","92","30.35","167","0","0","0.00","0.00"
"03:34:56","54.5","52.2","92","30.35","167","0","0","0.00","0.00"
"03:39:56","54.4","52.1","92","30.35","167","0","0","0.00","0.00"
"03:44:58","54.3","52","92","30.36","167","0","0","0.00","0.00"
"03:49:59","54.2","51.9","92","30.36","167","0","0","0.00","0.00"
"03:54:56","54.1","51.8","92","30.36","167","0","0","0.00","0.00"
"03:59:56","53.9","51.7","92.4","30.36","167","0","0","0.00","0.00"
"04:04:57","53.9","51.9","93","30.36","167","0","0","0.00","0.00"
"04:09:59","53.8","51.8","93","30.36","167","0","0","0.00","0.00"
"04:14:59","53.7","51.7","93","30.36","167","0","0","0.00","0.00"
"04:19:57","53.6","51.6","93","30.36","167","0","0","0.00","0.00"
"04:24:58","53.6","51.6","93","30.36","167","0","0","0.00","0.00"
"04:29:59","53.5","51.5","93","30.36","167","0","0","0.00","0.00"
"04:34:59","53.4","51.4","93","30.36","167","0","0","0.00","0.00"
"04:39:59","53.3","51.3","93","30.36","167","0","0","0.00","0.00"
"04:44:56","53.3","51.3","93","30.36","167","0","0","0.00","0.00"
"04:49:56","53.2","51.2","93","30.36","167","0","0","0.00","0.00"
"04:54:57","53.1","51.2","93.2","30.36","167","0","0","0.00","0.00"
"04:59:58","53.1","51.4","94","30.36","167","0","0","0.00","0.00"
"05:04:59","53","51.3","94","30.36","167","0","0","0.00","0.00"
"05:09:56","53","51.3","94","30.36","167","0","0","0.00","0.00"
"05:14:59","52.9","51.2","94","30.37","167","0","0","0.00","0.00"
"05:19:59","52.9","51.2","94","30.37","167","0","0","0.00","0.00"
"05:24:59","52.8","51.1","94","30.37","167","0","0","0.00","0.00"
"05:29:56","52.9","51.2","94","30.37","167","0","0","0.00","0.00"
"05:34:56","52.9","51.2","94","30.37","167","0","0","0.00","0.00"
"05:39:58","53","51.3","94.2","30.37","167","0","0","0.00","0.00"
"05:44:59","53","51.3","94","30.38","167","0","0","0.00","0.00"
"05:49:56","52.9","51.2","94","30.38","167","0","0","0.00","0.00"
"05:54:57","52.8","51.1","94","30.38","167","0","0","0.00","0.00"
"05:59:58","52.8","51.1","94","30.38","167","0","0","0.00","0.00"
"06:04:56","52.7","51","94","30.38","167","0","0","0.00","0.00"
"06:09:58","52.6","50.9","94","30.38","167","0","0","0.00","0.00"
"06:14:59","52.6","50.9","94.1","30.39","167","0","0","0.00","0.00"
"06:19:57","52.6","51.2","94.9","30.39","167","0","0","0.00","0.00"
"06:24:58","52.7","51","94.1","30.39","167","0","0","0.00","0.00"
"06:29:59","52.7","51","94","30.39","167","0","0","0.00","0.00"
"06:34:56","52.6","50.9","94","30.39","167","0","0","0.00","0.00"
"06:39:52","52.7","51.3","94.9","30.39","167","0","0","0.00","0.00"
"06:44:57","52.9","51.5","95","30.40","167","0","0","0.00","0.00"
"06:49:58","53.1","51.7","95","30.40","167","0","0","0.00","0.00"
"06:54:59","53.2","51.8","95","30.40","167","0","0","0.00","0.00"
"06:59:59","53.3","51.9","95","30.40","167","0","0","0.00","0.00"
"07:04:56","53.6","52.2","95","30.40","167","0","0","0.00","0.00"
"07:09:57","53.9","52.7","95.5","30.40","167","0","2","0.00","0.00"
"07:14:59","54.5","53.4","96","30.41","167","0.1","2.3","0.00","0.00"
"07:19:59","55.2","54","95.6","30.41","167","0","1","0.00","0.00"
"07:24:56","55.8","54.4","95.2","30.41","167","0","1.2","0.00","0.00"
"07:29:56","56.4","54.9","94.6","30.42","167","0","1","0.00","0.00"
"07:34:57","57.2","55.4","93.6","30.42","167","0.5","3","0.00","0.00"
"07:39:57","58","55.5","91.3","30.42","106","1.2","3.5","0.00","0.00"
"07:44:57","59","55.7","88.8","30.42","47","1","3.5","0.00","0.00"
"07:49:56","59.9","56.2","87.5","30.42","35","0.6","3.5","0.00","0.00"
"07:54:57","60.8","56.5","85.5","30.42","14","1.3","3.5","0.00","0.00"
"07:59:59","61.8","56.8","83.7","30.42","8","1.3","3.5","0.00","0.00"
"08:04:59","62.6","56.9","81.6","30.42","348","1.2","3.5","0.00","0.00"
"08:09:56","63.3","57","79.8","30.42","350","1.3","4","0.00","0.00"
"08:14:59","64","56.9","77.6","30.42","343","1.6","4","0.00","0.00"
"08:19:56","64.9","57","75.6","30.42","336","2","4","0.00","0.00"
"08:24:57","65.7","57.4","74.4","30.42","328","0.9","3.5","0.00","0.00"
"08:29:58","66.5","57.4","72.3","30.42","302","1","3.5","0.00","0.00"
"08:34:58","67.2","57.8","71.6","30.42","318","1.1","4","0.00","0.00"
"08:39:58","67.9","58","70.5","30.42","338","1.8","5","0.00","0.00"
"08:44:58","68.6","58.2","69.4","30.42","333","1.5","4","0.00","0.00"
"08:49:58","69.3","58.7","68.9","30.42","319","1","3.5","0.00","0.00"
"08:54:58","70","59","67.9","30.42","330","1.4","4","0.00","0.00"
"08:59:59","70.7","58.8","66","30.42","346","2","5","0.00","0.00"
"09:04:59","71.4","58.7","64.3","30.42","339","1.9","6","0.00","0.00"
"09:09:59","71.9","58.9","63.5","30.42","337","2.3","6","0.00","0.00"
"09:14:59","72.4","59.2","63.3","30.42","335","1.6","5","0.00","0.00"
"09:19:58","72.8","59.3","62.6","30.42","340","2.4","5","0.00","0.00"
"09:24:58","73.3","59.2","61.5","30.42","328","1.9","5","0.00","0.00"
"09:29:59","73.8","59.7","61.4","30.42","347","2.5","6","0.00","0.00"
"09:34:59","74.3","59.7","60.4","30.42","335","2.6","5.8","0.00","0.00"
"09:39:58","74.8","59.3","58.5","30.42","355","3","8.1","0.00","0.00"
"09:44:58","75.3","59","57.2","30.42","322","2.7","5.8","0.00","0.00"
"09:49:58","75.7","59.1","56.5","30.42","296","2.6","7","0.00","0.00"
"09:54:58","76.1","59.9","57.4","30.42","273","1.9","4","0.00","0.00"
"09:59:58","76.6","59.9","56.3","30.42","300","1.9","4","0.00","0.00"
"10:04:58","77.1","59.8","55.2","30.42","286","1.9","4","0.00","0.00"
"10:09:58","77.4","59.9","54.9","30.42","318","1.7","4","0.00","0.00"
"10:14:57","77.8","60.1","54.6","30.42","328","1.1","4","0.00","0.00"
"10:19:58","78.1","60.9","55.6","30.42","295","1.5","3.5","0.00","0.00"
"10:24:56","78.6","61","54.9","30.42","345","1.2","3.5","0.00","0.00"
"10:29:56","79.2","62.1","56","30.42","336","0.7","6","0.00","0.00"
"10:34:59","79.8","61.4","53.6","30.42","321","1.1","4.6","0.00","0.00"
"10:39:57","79.9","60.9","52.4","30.42","324","1.6","4","0.00","0.00"
"10:44:56","80.2","61.8","53.6","30.42","329","1.4","6","0.00","0.00"
"10:49:56","80.5","60.4","50.5","30.42","334","2.1","5.8","0.00","0.00"
"10:54:59","80.8","60","49.2","30.42","338","2.5","6","0.00","0.00"
"10:59:57","81","59.8","48.7","30.42","8","2.4","6","0.00","0.00"
"11:04:57","81.3","60.5","49.4","30.42","304","1.3","3.5","0.00","0.00"
"11:09:57","81.7","60","47.9","30.42","321","1.1","3.5","0.00","0.00"
"11:14:59","82.1","59.2","46","30.42","325","1.8","5","0.00","0.00"
"11:19:59","82.3","60","47","30.42","62","1.4","3.5","0.00","0.00"
"11:24:58","82.5","60.5","47.5","30.42","283","0.9","3","0.00","0.00"
"11:29:57","82.9","61.2","48.1","30.42","258","0.6","2.3","0.00","0.00"
"11:34:56","83.4","59.4","44.4","30.42","148","1.4","4","0.00","0.00"
"11:39:58","83.7","58.7","42.8","30.42","93","1.4","4","0.00","0.00"
"11:44:57","83.6","58.4","42.4","30.42","95","2.1","4","0.00","0.00"
"11:49:56","83.4","56.5","40","30.42","43","2","4","0.00","0.00"
"11:54:56","83.6","56.3","39.5","30.42","302","1.7","3.5","0.00","0.00"
"11:59:59","83.8","57.5","40.9","30.42","237","0.7","2.3","0.00","0.00"
"12:04:59","84.2","57.2","39.9","30.42","137","0.9","2.3","0.00","0.00"
"12:09:56","84.5","55.3","37","30.42","205","1.7","5","0.00","0.00"
"12:14:58","84.6","56.9","39","30.42","220","1.9","4","0.00","0.00"
"12:19:58","84.7","57.1","39.3","30.42","230","2","4","0.00","0.00"
"12:24:57","84.9","57.5","39.5","30.42","261","1.7","5","0.00","0.00"
"12:29:56","85.1","58.9","41.2","30.42","204","2","6","0.00","0.00"
"12:34:59","85.3","56.4","37.6","30.41","284","2.6","7","0.00","0.00"
"12:39:53","85.3","54.4","34.9","30.41","249","1.4","4.6","0.00","0.00"
"12:44:56","85.2","56.3","37.6","30.41","185","2.5","6","0.00","0.00"
"12:49:56","85.1","55.4","36.4","30.41","249","2.2","5.8","0.00","0.00"
"12:54:56","85.2","55.7","36.7","30.41","273","1.8","4","0.00","0.00"
"12:59:59","85.6","57.4","38.5","30.41","201","2.4","6","0.00","0.00"
"13:04:59","85.7","56.2","36.8","30.41","170","2.8","6","0.00","0.00"
"13:09:59","85.9","55.8","36.1","30.41","223","2.9","6","0.00","0.00"
"13:14:58","85.8","55.1","35.2","30.41","319","2.4","6","0.00","0.00"
"13:19:59","85.7","55.4","35.7","30.40","302","1.7","5","0.00","0.00"
"13:24:57","85.7","54.5","34.5","30.40","282","2.7","6","0.00","0.00"
"13:29:56","85.7","55.5","35.9","30.40","312","2.8","5","0.00","0.00"
"13:34:57","85.8","56","36.4","30.40","300","2.6","5","0.00","0.00"
"13:39:59","86.1","56.6","36.8","30.40","266","1.8","4","0.00","0.00"
"13:44:58","86.5","57","36.8","30.40","215","1.9","4","0.00","0.00"
"13:49:58","86.9","58.3","38.2","30.40","217","2.9","7","0.00","0.00"
"13:54:58","87","58.2","37.8","30.40","193","3.4","7","0.00","0.00"
"13:59:56","87.1","57.6","37","30.40","215","1.8","4","0.00","0.00"
"14:04:59","87.1","56.7","35.9","30.40","193","2.1","5","0.00","0.00"
"14:09:59","87.4","60.2","40.1","30.40","201","2.1","7","0.00","0.00"
"14:14:58","87.7","57.5","36.1","30.40","302","2.7","6","0.00","0.00"
"14:19:56","87.3","57.9","37.1","30.39","277","1.6","3.5","0.00","0.00"
"14:24:57","87.2","58.6","38.3","30.39","259","1.2","5","0.00","0.00"
"14:29:56","87.6","59.9","39.5","30.39","200","1.6","4.6","0.00","0.00"
"14:34:56","87.9","59.1","38","30.39","236","2.6","4","0.00","0.00"
"14:39:58","88","58.4","36.9","30.39","169","2.8","9","0.00","0.00"
"14:44:58","87.9","57.5","35.9","30.39","232","3.2","9.2","0.00","0.00"
"14:49:59","87.5","56.8","35.5","30.39","293","2","5","0.00","0.00"
"14:54:59","87.6","58.6","37.7","30.39","236","1.2","3.5","0.00","0.00"
"14:59:59","88.1","58.6","37.1","30.39","252","1.5","3.5","0.00","0.00"
"15:04:58","88.6","59.4","37.6","30.38","238","3.1","9","0.00","0.00"
"15:09:58","88.6","59.4","37.6","30.38","210","3.1","9.2","0.00","0.00"
"15:14:58","88.6","60.1","38.5","30.38","241","2.4","4.6","0.00","0.00"
"15:19:58","88.8","59.3","37.2","30.38","198","2.8","6","0.00","0.00"
"15:24:58","88.9","58.7","36.3","30.38","206","2.9","5","0.00","0.00"
"15:29:57","88.8","58.2","35.8","30.38","168","2.5","7","0.00","0.00"
"15:34:57","88.7","59.3","37.3","30.37","181","2.6","6.9","0.00","0.00"
"15:39:56","88.7","57.6","35.1","30.37","208","2.2","4","0.00","0.00"
"15:44:58","88.8","58.5","36.2","30.37","284","2.2","6","0.00","0.00"
"15:49:57","89.1","56.6","33.4","30.37","171","1.5","5.8","0.00","0.00"
"15:54:58","89.1","58.3","35.5","30.37","351","1.8","6","0.00","0.00"
"15:59:56","89","57","34.1","30.37","50","3.4","7","0.00","0.00"
"16:04:57","88.3","57.6","35.6","30.37","134","1.3","4.6","0.00","0.00"
"16:09:57","87.9","55.8","33.8","30.37","117","2","4","0.00","0.00"
"16:14:57","87.5","56.9","35.5","30.37","154","2.1","5","0.00","0.00"
"16:19:59","87.3","57.6","36.7","30.37","173","1.3","3.5","0.00","0.00"
"16:24:56","87.6","56.4","34.9","30.37","173","1","3.5","0.00","0.00"
"16:29:58","88.1","57.1","35.1","30.37","173","1.2","3.5","0.00","0.00"
"16:34:59","88.7","57.3","34.8","30.36","197","1.2","3.5","0.00","0.00"
"16:39:57","89.1","56.5","33.3","30.36","246","2.3","4","0.00","0.00"
"16:44:58","89.3","58.5","35.6","30.36","225","2.6","6","0.00","0.00"
"16:49:59","89.2","57.3","34.1","30.36","240","3.2","5.8","0.00","0.00"
"16:54:59","88.8","55.8","32.7","30.36","256","2.2","4","0.00","0.00"
"16:59:56","88.2","55.7","33.2","30.36","187","1.2","3.5","0.00","0.00"
"17:04:56","87.8","56.1","34.4","30.36","140","1","3","0.00","0.00"
"17:09:57","87.5","58.2","37.4","30.36","119","1.3","3.5","0.00","0.00"
"17:14:56","87.1","56.5","35.5","30.36","124","1","4","0.00","0.00"
"17:19:59","86.7","56.4","35.9","30.36","125","0.9","2.3","0.00","0.00"
"17:24:58","86.3","55.8","35.5","30.36","125","1.3","3.5","0.00","0.00"
"17:29:58","86.3","59.8","41.3","30.36","125","0.3","2.3","0.00","0.00"
"17:34:58","86.5","58.5","39.1","30.36","125","2.1","4","0.00","0.00"
"17:39:59","86.5","57.9","38","30.36","125","1","3.5","0.00","0.00"
"17:44:59","86.5","59.3","40.1","30.36","125","0.4","2.3","0.00","0.00"
"17:49:59","86.4","62.8","45.4","30.36","125","0.9","2.3","0.00","0.00"
"17:54:56","86.1","60.7","42.6","30.36","125","0.3","2.3","0.00","0.00"
"17:59:56","86","61.8","44.6","30.36","125","0.2","2","0.00","0.00"
"18:04:56","85.8","58.4","39.6","30.36","113","1.5","5","0.00","0.00"
"18:09:57","85.4","57.8","39.3","30.36","104","1.5","4.6","0.00","0.00"
"18:14:58","84.9","59.1","41.8","30.37","99","1.9","7","0.00","0.00"
"18:19:58","84.2","60.2","44.4","30.37","96","2.2","6.9","0.00","0.00"
"18:24:57","83.7","59.9","44.6","30.37","107","2.7","12","0.00","0.00"
"18:29:57","83.4","59.7","44.8","30.37","117","3.2","7","0.00","0.00"
"18:34:57","83.2","60.1","45.8","30.37","105","1.9","5.8","0.00","0.00"
"18:39:59","83","60.3","46.4","30.37","107","1.8","4","0.00","0.00"
"18:44:58","82.9","60.2","46.3","30.37","126","3.4","7","0.00","0.00"
"18:49:59","82.9","60.3","46.4","30.37","113","2.7","6","0.00","0.00"
"18:54:59","82.8","60.5","47","30.37","115","2.1","5.8","0.00","0.00"
"18:59:59","82.6","60.3","47","30.37","111","2.5","6","0.00","0.00"
"19:04:58","82.5","60.5","47.5","30.37","122","1","3.5","0.00","0.00"
"19:09:59","82.4","60.4","47.5","30.37","115","2.2","10","0.00","0.00"
"19:14:56","82.1","60.4","47.8","30.37","125","3.8","10.4","0.00","0.00"
"19:19:59","81.7","60.9","49.3","30.37","132","3.3","8.1","0.00","0.00"
"19:24:57","81.3","61.4","51","30.37","128","3.7","9","0.00","0.00"
"19:29:56","80.9","61.6","52","30.37","131","3.1","7","0.00","0.00"
"19:34:56","80.5","61.7","52.8","30.37","123","3.3","7","0.00","0.00"
"19:39:58","80.1","62","54.1","30.37","117","2.3","5.8","0.00","0.00"
"19:44:58","79.7","62.2","55.1","30.38","110","2.1","7","0.00","0.00"
"19:49:58","79.3","62.4","56.4","30.38","116","3.2","7","0.00","0.00"
"19:54:57","78.8","62.3","56.9","30.38","117","3.2","12","0.00","0.00"
"19:59:59","78.2","61.3","56.1","30.39","110","6","14","0.00","0.00"
"20:04:59","77.6","60.5","55.5","30.39","111","3.8","11.5","0.00","0.00"
"20:09:55","76.8","59.3","54.7","30.39","105","3.7","7","0.00","0.00"
"20:14:56","76.1","58.2","54","30.40","115","3.9","10.4","0.00","0.00"
"20:19:58","75.6","57.6","53.6","30.40","111","3.8","7","0.00","0.00"
"20:24:56","75","55.8","51.3","30.40","103","3.1","10","0.00","0.00"
"20:29:59","74.3","54.4","49.9","30.42","119","2.7","5.8","0.00","0.00"
"20:34:57","73.7","53.2","48.8","30.42","122","2.6","7","0.00","0.00"
"20:39:57","73.2","52.3","48","30.42","111","3.5","7","0.00","0.00"
"20:44:59","72.9","51.7","47.3","30.42","103","2.3","5","0.00","0.00"
"20:49:58","72.6","50.9","46.5","30.42","108","2.6","6","0.00","0.00"
"20:54:57","72.3","50.1","45.5","30.42","109","2.5","5","0.00","0.00"
"20:59:56","72","49.8","45.5","30.43","113","2.3","7","0.00","0.00"
"21:04:56","71.8","49.6","45.6","30.43","115","3.2","9","0.00","0.00"
"21:09:57","71.6","49.6","45.7","30.43","123","3.4","9.2","0.00","0.00"
"21:14:58","71.5","49.5","45.9","30.43","118","2.7","6.9","0.00","0.00"
"21:19:58","71.2","49.3","46","30.43","110","2.2","5","0.00","0.00"
"21:24:58","70.9","49.1","46","30.43","129","2.7","6","0.00","0.00"
"21:29:59","70.6","48.8","46","30.44","116","2.4","6","0.00","0.00"
"21:34:57","70.5","48.3","45.3","30.44","121","2.8","8","0.00","0.00"
"21:39:58","70.3","48","45.1","30.44","124","3.7","10.4","0.00","0.00"
"21:44:59","70.2","48.1","45.4","30.44","119","3.5","9.2","0.00","0.00"
"21:49:58","70","48.2","45.9","30.44","135","2.9","4.6","0.00","0.00"
"21:54:59","69.8","48.4","46.5","30.44","137","2.1","5","0.00","0.00"
"21:59:56","69.6","48.2","46.5","30.45","168","2.4","6","0.00","0.00"
"22:04:57","69.3","47.7","46.1","30.45","118","2.4","5","0.00","0.00"
"22:09:58","69.2","47.8","46.5","30.45","127","2","6","0.00","0.00"
"22:14:59","69","47.9","47.1","30.46","123","1.3","4","0.00","0.00"
"22:19:58","68.7","48.2","48","30.46","121","0.8","3.5","0.00","0.00"
"22:24:58","68.5","47.8","47.7","30.46","121","0.5","3.5","0.00","0.00"
"22:29:56","68.2","48.4","49.2","30.48","121","0.8","3.5","0.00","0.00"
"22:34:57","67.8","47.4","47.9","30.48","155","1.5","4","0.00","0.00"
"22:39:57","67.7","46.7","46.9","30.48","134","1.4","5","0.00","0.00"
"22:44:59","67.6","46.6","47","30.48","135","1.2","3.5","0.00","0.00"
"22:49:56","67.4","46.5","47.1","30.48","135","0.9","3.5","0.00","0.00"
"22:54:58","67.2","46.3","47","30.48","139","0.9","3.5","0.00","0.00"
"22:59:56","67","46.2","47.2","30.48","139","0.7","2.3","0.00","0.00"
"23:04:57","66.7","45.9","47.2","30.48","139","1.1","3.5","0.00","0.00"
"23:09:58","66.5","45.6","47","30.48","139","0.4","2.3","0.00","0.00"
"23:14:59","66.3","45.6","47.1","30.48","140","1","2.3","0.00","0.00"
"23:19:56","66.1","45.8","48","30.48","139","0.7","3","0.00","0.00"
"23:24:57","65.9","45.6","48","30.48","139","0.5","2.3","0.00","0.00"
"23:29:58","65.6","45.8","48.7","30.49","139","0.1","1.2","0.00","0.00"
"23:34:58","65.2","45.6","49","30.49","139","0.2","2","0.00","0.00"
"23:39:59","64.8","45.7","49.9","30.49","139","0","0","0.00","0.00"
"23:44:58","64.4","46.4","52.2","30.49","139","0","0","0.00","0.00"
"23:49:57","63.7","46.2","53","30.49","139","0","0","0.00","0.00"
"23:54:56","63.1","46.2","54","30.49","139","0","0","0.00","0.00"
"23:59:59","62.5","46.7","56.2","30.50","139","0","0","0.00","0.00"
